This is the latest recevied weather packets stored in our database for station/object LU1MQF-13. If no packets are shown the sender has not sent any weather packets the latest 10 day(s).
| Time | Temp. | Humidity | Pressure | Rain* | Wind** | Luminosity | Snow |
|---|---|---|---|---|---|---|---|
| 1778122632 | 17.22° C | 36% | 932 hPa | - | - | - | - |
| 1778121732 | 17.78° C | 37% | 931.9 hPa | - | - | - | - |
| 1778120832 | 17.78° C | 39% | 931.9 hPa | - | - | - | - |
| 1778119932 | 17.78° C | 41% | 932.1 hPa | - | - | - | - |
| 1778119032 | 17.78° C | 46% | 932.4 hPa | - | - | - | - |
| 1778118132 | 17.78° C | 40% | 931.9 hPa | - | - | - | - |
| 1778117232 | 17.78° C | 41% | 931.6 hPa | - | - | - | - |
| 1778116332 | 17.78° C | 42% | 931.3 hPa | - | - | - | - |
| 1778115432 | 18.89° C | 43% | 931.2 hPa | - | - | - | - |
| 1778114532 | 18.89° C | 44% | 930.9 hPa | - | - | - | - |
| 1778113631 | 18.89° C | 44% | 931 hPa | - | - | - | - |
| 1778112732 | 20° C | 50% | 931.1 hPa | - | - | - | - |
| 1778111832 | 18.89° C | 50% | 931.1 hPa | - | - | - | - |
| 1778110932 | 18.89° C | 50% | 931.1 hPa | - | - | - | - |
| 1778110032 | 18.89° C | 49% | 931.4 hPa | - | - | - | - |
| 1778109132 | 18.89° C | 39% | 931.2 hPa | - | - | - | - |
| 1778108231 | 18.89° C | 39% | 931.7 hPa | - | - | - | - |
| 1778107332 | 18.89° C | 39% | 931.2 hPa | - | - | - | - |
| 1778106432 | 18.89° C | 38% | 931 hPa | - | - | - | - |
| 1778105532 | 18.89° C | 39% | 930.9 hPa | - | - | - | - |
| 1778104631 | 18.89° C | 39% | 930.7 hPa | - | - | - | - |
| 1778103731 | 20° C | 39% | 930.7 hPa | - | - | - | - |
| 1778102832 | 20° C | 39% | 930.3 hPa | - | - | - | - |
| 1778101932 | 21.11° C | 38% | 930.6 hPa | - | - | - | - |
| 1778101031 | 21.11° C | 37% | 930.7 hPa | - | - | - | - |
* Rain since midnight (hover to see other rain measurements)
** Current wind speed in m/s (hover to see current wind gust speed)